[[{"header":{"parameterUnit":"m.s-1","parameterCategory":1,"la1":30.2991,"la2":30.254,"lo1":-89.0895,"lo2":-89.0444,"dy":0.0017,"dx":0.0017,"nx":28,"ny":28,"refTime":"2024-07-28T09:00:00:Z","depth":0,"parameterNumber":2,"parameterNumberName":"U-component_of_WINDS"},"data":[0,0,0,0,0,0,0,0,0,0,0,0,0,0,0,0,0,0,0,0,0,0,0,0,0,0,0,0,0,0,0,0,0,0,0,0,0,0,0,0,0,0,0,0,0,0,0,0,0,0,0,0,0,0,0,0,0,0,1.8841,1.8843,0,1.9007,1.9009,1.9011,1.9011,1.9009,1.9007,1.9005,1.9178,1.9184,1.9191,0,0,0,0,0,0,0,0,0,0,0,0,0,1.8525,1.853,1.8841,1.8843,1.8845,1.9007,1.9009,1.9012,1.9012,1.9009,1.9007,1.9004,1.9176,1.9183,1.9191,0,0,0,0,0,0,0,0,0,0,0,0,0,1.8674,1.8532,1.8841,1.8865,1.8868,1.9007,1.9009,1.9012,1.9012,1.9009,1.9006,1.9003,1.9173,1.9183,1.9193,1.9318,0,0,1.9223,1.9227,0,0,0,0,0,0,0,0,1.8665,1.8685,1.8859,1.8863,1.8868,1.8985,1.8961,1.9115,1.9013,1.8958,1.9005,1.9001,1.9117,1.9131,1.9169,1.9327,1.9334,1.9224,1.923,1.9234,1.9237,0,0,0,0,0,0,0,1.8655,1.8678,1.8907,1.8862,1.8867,1.8867,1.8885,1.899,1.9053,1.8962,1.8963,1.8982,1.9118,1.916,1.9173,1.9337,1.9223,1.9232,1.9238,1.9242,1.9605,1.9608,0,0,0,0,0,0,1.8639,1.8669,1.8902,1.8912,1.8756,1.8876,1.8895,1.8951,1.9052,1.9064,1.8985,1.8982,1.9144,1.9162,1.9179,1.9334,1.9234,1.9243,1.9249,1.9601,1.9605,1.9609,0,0,0,0,0,0,1.8633,1.866,1.8895,1.8791,1.8821,1.8885,1.8947,1.8956,1.8997,1.9069,1.9081,1.9016,1.9143,1.9165,1.9284,1.934,1.9248,1.9257,1.9597,1.9602,1.9607,1.9643,0,0,0,0,0,0,1.8623,1.8658,1.8706,1.8792,1.8826,1.8996,1.895,1.8961,1.9014,1.9011,1.9101,1.9113,1.9142,1.9269,1.9293,1.9352,1.9264,1.9592,1.9599,1.9606,1.9637,1.9649,1.9659,0,0,0,0,0,1.8612,1.871,1.8709,1.8737,1.8888,1.8999,1.9019,1.905,1.9019,1.9068,1.9114,1.911,1.9329,1.9281,1.9309,1.9371,1.9589,1.9597,1.9605,1.9632,1.9647,1.9659,0,0,0,0,0,0,1.8631,1.8722,1.8721,1.885,1.8917,1.8999,1.9063,1.9064,1.9142,1.9137,1.9172,1.9192,1.931,1.9352,1.9296,1.9497,1.9455,1.9469,1.9466,1.9481,1.9491,1.948,1.9273,0,0,0,0,0,1.865,1.8732,1.8807,1.8914,1.8947,1.8999,1.9049,1.9066,1.9137,1.9166,1.922,1.929,1.9374,1.9429,1.9511,1.9642,1.9662,1.9699,1.9709,1.9718,1.9731,1.9803,1.9821,1.9636,1.9636,1.9636,0,0,1.8691,1.875,1.88,1.8919,1.8973,1.9058,1.9023,1.9114,1.9178,1.918,1.9295,1.9337,1.9417,1.9542,1.96,1.958,1.9785,1.9729,1.9735,1.9743,1.9814,1.9831,1.9846,1.9642,1.9641,1.964,0,0,1.8808,1.8861,1.8956,1.9009,1.9091,1.9124,1.9146,1.9229,1.9256,1.9372,1.9375,1.945,1.9595,1.9652,1.9699,1.9835,1.9835,1.986,1.9919,1.999,2.0004,2.0017,2.0067,2.0084,1.9872,1.9872,1.9873,0,1.8849,1.8976,1.9004,1.9096,1.9148,1.9151,1.9247,1.9298,1.9403,1.9439,1.9415,1.9595,1.965,1.9788,1.9821,1.9859,1.9886,1.9852,1.9999,2.0013,2.0026,2.0073,2.0091,1.9875,1.9875,1.9875,1.9874,0,1.9022,1.911,1.9177,1.9276,1.9335,1.9428,1.9471,1.9527,1.9538,1.9574,1.9691,1.9755,1.985,1.9883,1.9896,2.0023,2.0009,1.9992,1.995,2.0045,2.0091,2.0109,1.9879,1.9878,1.9877,1.9877,0,0,1.916,1.9271,1.9295,1.934,1.9429,1.9498,1.959,1.9681,1.9729,1.98,1.9879,2.0,1.9984,2.0038,2.0057,2.0118,2.0222,2.0094,2.0096,2.0116,2.0367,2.0381,2.0401,2.0221,2.0224,2.0227,2.0361,0,1.9288,1.9453,1.948,1.9624,1.9706,1.9709,1.979,1.9853,1.9888,1.9962,2.0001,2.0087,2.0059,2.0092,2.0152,2.0196,2.0273,2.0187,2.0296,2.03,2.0278,2.0425,2.044,2.0563,2.0378,2.0381,2.0384,0,1.9461,1.9535,1.9688,1.9764,1.9799,1.9871,1.9956,2.0027,2.0098,2.0119,2.0178,2.0189,2.0285,2.0236,2.037,2.0311,2.0356,2.0384,2.039,2.0403,2.0349,2.0444,2.0603,2.0623,2.0411,2.0409,2.0407,0,1.9548,1.9685,1.9794,1.9832,1.9923,1.9974,2.0014,2.0082,2.0135,2.0209,2.0243,2.0327,2.0374,2.0439,2.0472,2.0434,2.0604,2.0558,2.0625,2.0624,2.0663,2.0661,2.0834,2.0689,2.0688,2.0688,2.0687,0,1.969,1.9784,1.9835,1.9902,2.0007,2.0035,2.0138,2.0177,2.0237,2.0312,2.0319,2.0389,2.0427,2.0503,2.0529,2.0636,2.0656,2.0677,2.0683,2.0678,2.0675,2.071,2.0703,2.0693,2.0692,2.0691,2.069,0,1.9806,1.9844,1.9963,2.0039,2.006,2.0134,2.0198,2.0264,2.0297,2.0391,2.0415,2.0468,2.0558,2.0596,2.0706,2.0723,2.0846,2.0845,2.0822,2.0825,2.089,2.0884,2.1094,2.1123,2.0956,2.0958,2.0959,0,1.9896,1.9968,2.005,2.01,2.0142,2.0223,2.0276,2.0306,2.0361,2.0446,2.0501,2.059,2.0663,2.0806,2.0854,2.0938,2.0941,2.1008,2.0954,2.0946,2.0944,2.094,2.0948,2.1019,2.1021,2.1022,2.1023,0,2.0051,2.0066,2.0142,2.0224,2.0287,2.0353,2.0418,2.0459,2.0498,2.056,2.0651,2.0707,2.0818,2.0907,2.0994,2.1035,2.1037,2.1039,2.106,2.1056,2.1041,2.1052,2.0852,2.1035,2.1034,2.1033,2.1033,2.1032,2.0159,2.0223,2.029,2.0374,2.0425,2.0485,2.055,2.059,2.0666,2.0759,2.0771,2.0869,2.0936,2.1052,2.1097,2.1173,2.1157,2.1186,2.1193,2.1201,2.1206,2.1026,2.1189,2.1188,2.1188,2.1188,2.1188,0,2.0316,2.0359,2.0435,2.0525,2.0591,2.0583,2.0654,2.071,2.0795,2.0857,2.0928,2.1032,2.1117,2.1171,2.1257,2.1308,2.1311,2.133,2.1328,2.1338,2.1215,2.119,2.1326,2.1326,2.1326,2.1326,2.1326,2.1326,2.0406,2.0514,2.0535,2.0668,2.071,2.0805,2.0846,2.0901,2.095,2.1066,2.1136,2.117,2.1229,2.1318,2.1396,2.1409,2.1442,2.1462,2.1475,2.136,2.1346,2.1333,2.1309,2.1468,2.1469,2.1592,2.1593,2.1594]},{"header":{"parameterUnit":"m.s-1","parameterCategory":1,"la1":30.2991,"la2":30.254,"lo1":-89.0895,"lo2":-89.0444,"dy":0.0017,"dx":0.0017,"nx":28,"ny":28,"refTime":"2024-07-28T09:00:00:Z","depth":0,"parameterNumber":3,"parameterNumberName":"V-component_of_WINDS"},"data":[0,0,0,0,0,0,0,0,0,0,0,0,0,0,0,0,0,0,0,0,0,0,0,0,0,0,0,0,0,0,0,0,0,0,0,0,0,0,0,0,0,0,0,0,0,0,0,0,0,0,0,0,0,0,0,0,0,0,4.6371,4.6373,0,4.6573,4.6575,4.6577,4.6593,4.659,4.6588,4.6586,4.6783,4.679,4.6798,0,0,0,0,0,0,0,0,0,0,0,0,0,4.5988,4.5995,4.637,4.6373,4.6375,4.6572,4.6575,4.6578,4.6593,4.659,4.6588,4.6585,4.6781,4.679,4.6798,0,0,0,0,0,0,0,0,0,0,0,0,0,4.6168,4.5997,4.637,4.6407,4.6412,4.6572,4.6575,4.6578,4.6593,4.659,4.6587,4.6584,4.6778,4.6789,4.6799,4.6933,0,0,4.6833,4.6838,0,0,0,0,0,0,0,0,4.6158,4.6182,4.6399,4.6405,4.6411,4.6554,4.6512,4.6697,4.6594,4.6524,4.6586,4.6582,4.6709,4.6725,4.677,4.6942,4.695,4.6834,4.684,4.6845,4.6848,0,0,0,0,0,0,0,4.6145,4.6173,4.645,4.6402,4.6409,4.641,4.6432,4.6547,4.6632,4.653,4.6532,4.6556,4.6712,4.676,4.6775,4.6953,4.6834,4.6843,4.685,4.6854,4.7242,4.7246,0,0,0,0,0,0,4.6127,4.6163,4.6444,4.6456,4.6274,4.642,4.6444,4.6511,4.6631,4.6647,4.6559,4.6556,4.6743,4.6762,4.6782,4.6945,4.6845,4.6855,4.6862,4.7238,4.7243,4.7247,0,0,0,0,0,0,4.6119,4.6152,4.6435,4.631,4.6346,4.643,4.6505,4.6517,4.6565,4.6653,4.6667,4.6593,4.6741,4.6767,4.6895,4.6952,4.686,4.687,4.7234,4.724,4.7245,4.7273,0,0,0,0,0,0,4.6108,4.6149,4.6203,4.6311,4.6353,4.6549,4.6509,4.6523,4.6585,4.6584,4.6689,4.6703,4.674,4.6879,4.6906,4.6966,4.6879,4.7229,4.7236,4.7243,4.7267,4.7279,4.7289,0,0,0,0,0,4.6094,4.6201,4.6206,4.6239,4.6423,4.6552,4.6576,4.6619,4.659,4.6643,4.6699,4.6699,4.6942,4.6892,4.6923,4.6986,4.7226,4.7234,4.7243,4.7262,4.7276,4.7288,0,0,0,0,0,0,4.6094,4.6216,4.6222,4.6368,4.645,4.6555,4.6623,4.6633,4.6722,4.6717,4.6764,4.6787,4.6914,4.6963,4.6906,4.712,4.708,4.7095,4.7084,4.7099,4.7109,4.7094,4.6888,0,0,0,0,0,4.6111,4.621,4.6309,4.6428,4.6469,4.6539,4.6597,4.6624,4.6709,4.6743,4.6808,4.6888,4.6982,4.7043,4.7134,4.7274,4.7296,4.7332,4.7343,4.7351,4.7364,4.744,4.7457,4.7274,4.7274,4.7274,0,0,4.6147,4.6226,4.6285,4.643,4.6497,4.6594,4.6568,4.6672,4.6744,4.6757,4.6884,4.6935,4.7026,4.7161,4.7224,4.7206,4.7419,4.7362,4.7368,4.7376,4.745,4.7467,4.7482,4.728,4.7279,4.7278,0,0,4.6263,4.6334,4.644,4.6508,4.661,4.6656,4.6681,4.6784,4.6819,4.6948,4.696,4.7043,4.7205,4.727,4.7324,4.7463,4.7466,4.7491,4.7547,4.762,4.7634,4.7647,4.7696,4.7713,4.7503,4.7503,4.7503,0,4.6294,4.6445,4.6493,4.6598,4.666,4.668,4.6786,4.6848,4.6973,4.7014,4.6993,4.7196,4.7259,4.7408,4.7442,4.7486,4.7514,4.7479,4.7629,4.7643,4.7655,4.7702,4.772,4.7505,4.7505,4.7505,4.7504,0,4.6478,4.6582,4.6655,4.6779,4.685,4.6954,4.7014,4.7079,4.7099,4.7146,4.7275,4.7352,4.7458,4.7496,4.7515,4.7648,4.7633,4.762,4.758,4.7674,4.7719,4.7737,4.7509,4.7508,4.7507,4.7506,0,0,4.66,4.6749,4.6775,4.6831,4.6945,4.7024,4.7128,4.7236,4.729,4.7375,4.7462,4.7598,4.7586,4.7647,4.7674,4.7738,4.7842,4.7717,4.772,4.7737,4.7991,4.8,4.802,4.7845,4.7848,4.7851,4.7983,0,4.6728,4.6919,4.6964,4.7125,4.722,4.7239,4.733,4.7407,4.7453,4.7538,4.7587,4.7683,4.7661,4.7698,4.7762,4.7816,4.7894,4.7807,4.7923,4.7927,4.79,4.8044,4.8054,4.8175,4.8001,4.8004,4.8006,0,4.6904,4.6996,4.7168,4.7269,4.731,4.7391,4.7493,4.7574,4.7661,4.769,4.7758,4.7778,4.7883,4.7838,4.7983,4.7923,4.7973,4.8006,4.8011,4.8024,4.7972,4.8059,4.8215,4.8233,4.8034,4.8032,4.803,0,4.6975,4.7141,4.7266,4.7313,4.7434,4.749,4.7542,4.7626,4.7687,4.7774,4.7814,4.7911,4.7964,4.8037,4.8081,4.8044,4.8221,4.818,4.8246,4.8245,4.8282,4.8279,4.8447,4.8315,4.8315,4.8314,4.8314,0,4.7113,4.7217,4.73,4.7376,4.7492,4.7541,4.7654,4.7705,4.778,4.7864,4.7884,4.7962,4.8016,4.81,4.8134,4.8248,4.8271,4.8295,4.8303,4.8294,4.8291,4.8327,4.8319,4.8319,4.8318,4.8317,4.8316,0,4.7212,4.7272,4.7409,4.7512,4.754,4.7621,4.7708,4.7781,4.7827,4.7933,4.796,4.8032,4.8132,4.8184,4.8307,4.833,4.8458,4.8461,4.843,4.8433,4.8495,4.8488,4.8692,4.8721,4.857,4.8571,4.8572,0,4.7297,4.7378,4.7491,4.755,4.7604,4.77,4.7763,4.7813,4.7877,4.7982,4.8042,4.8144,4.8228,4.8386,4.8447,4.8541,4.8546,4.8611,4.856,4.8547,4.8546,4.8541,4.8548,4.8619,4.8621,4.8622,4.8623,0,4.744,4.7466,4.7558,4.7661,4.7737,4.7819,4.79,4.7947,4.8009,4.808,4.8184,4.825,4.8377,4.8477,4.8576,4.8625,4.8634,4.8639,4.8659,4.865,4.8628,4.864,4.8454,4.8634,4.8633,4.8632,4.8631,4.8631,4.7534,4.7607,4.7698,4.78,4.7866,4.7941,4.8015,4.8072,4.8161,4.8271,4.8294,4.8404,4.8486,4.862,4.8672,4.8756,4.8742,4.8771,4.8779,4.8785,4.8788,4.8615,4.8774,4.8774,4.8774,4.8774,4.8774,0,4.7678,4.7738,4.7831,4.7945,4.8024,4.8029,4.8118,4.8183,4.8281,4.8359,4.8442,4.856,4.8657,4.8725,4.8823,4.8877,4.8883,4.8901,4.8897,4.8908,4.8795,4.8768,4.8894,4.8894,4.8894,4.8894,4.8894,4.8894,4.7762,4.7885,4.7921,4.8076,4.8134,4.8245,4.8295,4.8363,4.8426,4.8559,4.864,4.8685,4.8758,4.8861,4.8949,4.8966,4.9,4.9018,4.9035,4.8928,4.8916,4.8904,4.8878,4.9025,4.9025,4.914,4.9142,4.9142]}]]